Regional Weather Roundup
Issued by NWS Little Rock, AR

Home | Current Version | Previous Version | Graphics & Text | Print | Product List | Glossary On
Versions: 1 2 3 4 5 6 7 8 9 10 11 12 13 14 15 16 17 18 19 20 21 22 23 24 25 26 27 28 29 30 31 32 33 34 35 36 37 38 39 40 41 42 43 44 45 46 47 48 49 50
000
ASUS44 KLZK 182105
RWRLZK

WEATHER ROUNDUP FOR ARKANSAS
NATIONAL WEATHER SERVICE LITTLE ROCK AR
400 PM CDT SAT APR 18 2015

NOTE: "FAIR" INDICATES FEW OR NO CLOUDS BELOW 12,000 FEET WITH NO
SIGNIFICANT WEATHER AND/OR OBSTRUCTIONS TO VISIBILITY.

ARZ001-003-010-029-182200-
NORTHWEST ARKANSAS

CITY           SKY/WX    TMP DP  RH WIND       PRES   REMARKS
FAYETTEVILLE   MOSUNNY   70  61  73 VRB5      29.86F
FORT SMITH     SUNNY     73  60  63 SE6       29.85F
HARRISON       LGT RAIN  63  61  93 VRB3      29.90F
BENTONVILLE    MOSUNNY   70  59  68 SE8       29.88F
ROGERS         CLOUDY    68  58  70 E8        29.88F
SILOAM SPGS    CLOUDY    68  57  68 SE5       29.88F
HIGHFILL       MOSUNNY   69  59  70 SE6       29.86F
SPRINGDALE     PTSUNNY   70  59  68 E6        29.88F
$$

ARZ004-005-016-182200-
NORTH CENTRAL ARKANSAS

CITY           SKY/WX    TMP DP  RH WIND       PRES   REMARKS
BATESVILLE     CLOUDY    73  61  64 E9        29.87F
FLIPPIN        CLOUDY    72 N/A N/A E8        29.86F
MTN HOME       CLOUDY    71  59  65 SE8       29.87F
$$

ARZ040-041-182200-
WEST CENTRAL ARKANSAS

CITY           SKY/WX    TMP DP  RH WIND       PRES   REMARKS
MENA           PTSUNNY   73  63  68 E7        29.86F
MOUNT IDA      PTSUNNY   71  61  70 SE9       29.84S
$$

ARZ009-017-025-026-028-182200-
NORTHEAST ARKANSAS

CITY           SKY/WX    TMP DP  RH WIND       PRES   REMARKS
CORNING          N/A     75  61  60 SE7       29.88F
JONESBORO      CLOUDY    74  62  66 E9        29.87F
NEWPORT        CLOUDY    75  63  66 E6        29.88F
WALNUT RIDGE   CLOUDY    75  61  60 SE8       29.87F
BLYTHEVILLE    CLOUDY    77  62  59 E3        29.88F
$$

ARZ022-023-033-042-044-182200-
CENTRAL ARKANSAS

CITY           SKY/WX    TMP DP  RH WIND       PRES   REMARKS
LITTLE ROCK    CLOUDY    72  60  66 E9        29.85F
N LITTLE ROCK  CLOUDY    69  67  94 E6        29.85F
JACKSONVILLE   CLOUDY    72  62  71 E6        29.85F
SEARCY         CLOUDY    74  63  68 E8        29.87F
HOT SPRINGS    LGT RAIN  68  64  87 E3        29.85F
RUSSELLVILLE   CLOUDY    74  60  61 E6        29.84F
CLINTON        FAIR      73  63  68 E6        29.87F
$$

ARZ036-182200-
EAST ARKANSAS

CITY           SKY/WX    TMP DP  RH WIND       PRES   REMARKS
WEST MEMPHIS   CLOUDY    71  64  78 S7        29.86F
$$

ARZ050-053-066-070-073-182200-
SOUTHWEST ARKANSAS

CITY           SKY/WX    TMP DP  RH WIND       PRES   REMARKS
ARKADELPHIA    FAIR      74  68  81 VRB3      29.84F
CAMDEN         LGT RAIN  68  64  88 CALM      29.85R
TEXARKANA      CLOUDY    70  64  81 CALM      29.85S
EL DORADO      CLOUDY    69  65  86 NE7       29.84R
DE QUEEN       PTSUNNY   73  65  75 E7        29.82F
$$

ARZ056-057-069-182200-
SOUTHEAST ARKANSAS

CITY           SKY/WX    TMP DP  RH WIND       PRES   REMARKS
PINE BLUFF     LGT RAIN  67  64  90 SE8       29.85F
STUTTGART      CLOUDY    72  61  68 SE7       29.86F
MONTICELLO     LGT RAIN  66  65  96 NE9       29.85F FOG

$$





USA.gov is the U.S. government's official web portal to all federal, state and local government web resources and services.